weather.gov     
National Weather Service

Hourly Weather Roundup
NWS Homepage
This page is being discontinued on March 12, 2014.
The same data is available at this site. Please update your bookmarks.
Thank you, and we apologize for the inconvenience.
Please send an email to SR-SRH.Webmaster@noaa.gov with any concerns.


Current Version
Previous Version:    01  02  03  04  05  06  07  08  09  10  11  12  13  14  15  16  17  18  19  20  21  22  23  24  25  26  27  28  29  30  
   31  32  33  34  35  36  37  38  39  40  41  42  43  44  45  46  47  48  49  50  51  52  53  54  55  56  57  58  59  60  
[Printable]
755
NZUS43 KILX 200910
HWRILX

AREA WEATHER ROUNDUP
NATIONAL WEATHER SERVICE, LINCOLN IL
400 AM CDT MON OCT 20 2014


CITY           SKY/WX    TMP DP  RH WIND       PRES   REMARKS
BLOOMINGTON    CLEAR     50  46  85 SW10      29.90F
CHAMPAIGN      CLEAR     47  44  90 S8        29.92F
DECATUR        CLEAR     50  46  86 SW10      29.94F
FLORA          CLOUDY    51  47  85 SW8       30.00F
GALESBURG      CLEAR     49  45  87 SW6       29.88S
JACKSONVILLE   MOCLDY    55  48  78 SW10      29.92F
LACON          CLEAR     51  45  79 SW7       29.86S
LAWRENCEVILLE  CLOUDY    49  47  93 S7        30.01F
LITCHFIELD     PTCLDY    49  46  86 S6        29.96F
$$


CITY           SKY/WX    TMP DP  RH WIND       PRES   REMARKS
LINCOLN        MOCLDY    53  47  79 SW6       29.89F
MACOMB         CLEAR     52  47  84 W9        29.90F
MATTOON        PTCLDY    50  45  83 S8        29.95F
MT CARMEL AP   CLOUDY    52  48  87 SW7       30.01F
OLNEY-NOBLE AP CLOUDY    50  46  87 S3        30.00F
PARIS          CLOUDY    51  46  84 S7        29.96F
PEORIA         CLEAR     49  44  83 SW5       29.88F
PONTIAC        CLEAR     52  46  82 SW7       29.86F
RANTOUL        CLOUDY    53  45  74 SW12      29.91F
ROBINSON       CLOUDY    51  47  87 S7        30.01F
SPRINGFIELD    MOCLDY    54  46  74 SW9       29.93F
TAYLORVILLE    PTCLDY    50  45  81 SW7       29.95S
$$

...REGIONAL REPORTS...


CITY           SKY/WX    TMP DP  RH WIND       PRES   REMARKS
CHICAGO O`HARE PTCLDY    50  43  77 SW12G18   29.82F
KANKAKEE       CLOUDY    49  45  85 S9        29.88F
MOLINE         CLEAR     48  43  82 W3        29.86S
MOUNT VERNON   CLOUDY    52  45  76 S6        30.01F
PITTSFIELD     CLEAR     56  49  77 SW12      29.94F
QUINCY         CLEAR     54  48  80 SW10      29.92F
ROCKFORD       PTCLDY    47  42  83 S7        29.83F
$$


CITY           SKY/WX    TMP DP  RH WIND       PRES   REMARKS
BURLINGTON     CLEAR     52  47  83 W7        29.88F
CEDAR RAPIDS   CLEAR     48  45  89 NW10      29.87S
DES MOINES     CLEAR     52  45  77 N8        29.94S
KIRKSVILLE     CLEAR     54  50  86 W8        29.95S
OTTUMWA        CLEAR     51  45  79 W9        29.90S
ST LOUIS       MOCLDY    57  47  69 SW6       29.98F
$$


CITY           SKY/WX    TMP DP  RH WIND       PRES   REMARKS
TERRE HAUTE    LGT RAIN  50  45  83 S9        29.98F
EVANSVILLE     CLOUDY    49  45  86 SW5       30.04F
INDIANAPOLIS   CLOUDY    48  42  80 S9        29.98F
LAFAYETTE      CLOUDY    48  43  82 SW5       29.93F
MADISON        CLEAR     46  43  89 CALM      29.78S
MILWAUKEE      PTCLDY    49  42  77 SW6       29.78F
$$






U.S. Dept. of Commerce
NOAA National Weather Service
1325 East West Highway
Silver Spring, MD 20910
E-mail: w-nws.webmaster@noaa.gov
Page last modified: May 16, 2007
NATIONAL WEATHER SERVICE: for Safety, for Work, for Fun - FOR LIFE